TimeEDT,TemperatureF,Dew PointF,Humidity,Sea Level PressureIn,VisibilityMPH,Wind Direction,Wind SpeedMPH,Gust SpeedMPH,PrecipitationIn,Events,Conditions,WindDirDegrees,DateUTC
12:53 AM,39.0,37.0,93,30.14,10.0,SSW,6.9,-,N/A,,Clear,210,2012-10-08 04:53:00
1:53 AM,39.0,36.0,89,30.15,10.0,SSW,5.8,-,N/A,,Clear,210,2012-10-08 05:53:00
2:53 AM,37.9,35.1,89,30.16,10.0,SSW,5.8,-,N/A,,Clear,200,2012-10-08 06:53:00
3:53 AM,37.9,35.1,89,30.16,10.0,SSW,5.8,-,N/A,,Clear,210,2012-10-08 07:53:00
4:53 AM,39.0,35.1,86,30.18,10.0,SW,8.1,-,N/A,,Scattered Clouds,230,2012-10-08 08:53:00
5:53 AM,39.9,36.0,86,30.20,10.0,SSW,8.1,-,N/A,,Overcast,210,2012-10-08 09:53:00
6:53 AM,41.0,36.0,82,30.22,10.0,SSW,5.8,-,N/A,,Overcast,200,2012-10-08 10:53:00
7:53 AM,41.0,37.0,86,30.23,10.0,Calm,Calm,-,N/A,,Overcast,0,2012-10-08 11:53:00
8:53 AM,42.1,37.9,85,30.25,10.0,South,5.8,-,N/A,,Clear,180,2012-10-08 12:53:00
9:53 AM,45.0,37.9,76,30.26,10.0,SSW,6.9,-,N/A,,Mostly Cloudy,200,2012-10-08 13:53:00
10:53 AM,48.0,39.0,71,30.26,10.0,Variable,3.5,-,N/A,,Clear,0,2012-10-08 14:53:00
11:53 AM,48.9,39.0,69,30.24,10.0,Variable,3.5,-,N/A,,Overcast,0,2012-10-08 15:53:00
12:53 PM,53.1,39.0,59,30.24,10.0,SSW,4.6,-,N/A,,Mostly Cloudy,210,2012-10-08 16:53:00
1:53 PM,52.0,37.0,57,30.22,10.0,South,5.8,-,N/A,,Overcast,170,2012-10-08 17:53:00
2:53 PM,54.0,35.1,49,30.22,10.0,Variable,4.6,-,N/A,,Overcast,0,2012-10-08 18:53:00
3:53 PM,54.0,36.0,51,30.22,10.0,South,5.8,-,N/A,,Mostly Cloudy,180,2012-10-08 19:53:00
4:53 PM,53.1,37.9,57,30.21,10.0,SSE,5.8,-,N/A,,Overcast,150,2012-10-08 20:53:00
5:53 PM,52.0,37.0,57,30.23,10.0,SSE,10.4,-,N/A,,Mostly Cloudy,160,2012-10-08 21:53:00
6:53 PM,46.9,37.0,68,30.23,10.0,SSE,5.8,-,N/A,,Scattered Clouds,150,2012-10-08 22:53:00
7:53 PM,46.0,37.0,71,30.24,10.0,South,8.1,-,N/A,,Clear,170,2012-10-08 23:53:00
8:53 PM,45.0,35.1,68,30.24,10.0,Variable,3.5,-,N/A,,Clear,0,2012-10-09 00:53:00
9:53 PM,42.1,34.0,73,30.25,10.0,South,4.6,-,N/A,,Clear,190,2012-10-09 01:53:00
10:53 PM,37.9,33.1,83,30.25,10.0,SSE,4.6,-,N/A,,Clear,160,2012-10-09 02:53:00
11:53 PM,37.0,33.1,86,30.26,10.0,South,4.6,-,N/A,,Clear,170,2012-10-09 03:53:00